Weather History for Defiance, OH

Change the Weather History Date:

Sunday, March 24, 2013

  Actual Average Record
Temperature  
Mean Temperature 32 °F -  
Max Temperature 36 °F 49 °F 81 °F (1939)
Min Temperature 27 °F 27 °F 3 °F (1974)
Degree Days  
Heating Degree Days 34    
Moisture  
Dew Point 23 °F    
Average Humidity 70    
Maximum Humidity 82    
Minimum Humidity 52    
Precipitation  
Precipitation 0.00 in - - ()
Sea Level Pressure  
Sea Level Pressure 29.80 in    
Wind  
Wind Speed 10 mph (NE)    
Max Wind Speed 21 mph    
Max Gust Speed 31 mph    
Visibility 10 miles    
Events Snow    
Averages and records for this station are not official NWS values.
T = Trace of Precipitation, MM = Missing Value Source: NWS Daily Summary

Daily Weather History Graph

Daily Weather History Graph

Search for Another Location

Airport:

Trip Planner

Search our weather history database for the weather conditions in past years. The results will help you decide how hot, cold, wet, or windy it might be!

Date:

Astronomy

Mar. 24, 2013 Rise Set
Actual Time 7:33 AM EDT 7:54 PM EDT
Civil Twilight 7:06 AM EDT 8:22 PM EDT
Nautical Twilight 6:33 AM EDT 8:54 PM EDT
Astronomical Twilight 6:00 AM EDT 9:28 PM EDT
Moon 5:20 PM EDT (3/24) 5:45 AM EDT (3/24)
Length of Visible Light 13h 15m
Length of Day
12h 20m
Waxing Gibbous, 91% of the Moon is Illuminated
Mar 24
Waxing Gibbous
Mar 27
Full
Apr 3
Last Quarter
Apr 10
New
Apr 18
First Quarter

Hourly Weather History & Observations

Time (EDT) Temp. Windchill Dew Point Humidity Pressure Visibility Wind Dir Wind Speed Gust Speed Precip Events Conditions
12:53 AM 28.9 °F 21.1 °F 21.9 °F 75% 30.01 in 10.0 mi NE 8.1 mph - N/A   Clear
1:53 AM 28.0 °F 21.7 °F 21.9 °F 78% 30.00 in 10.0 mi NE 5.8 mph - N/A   Clear
2:53 AM 28.0 °F 24.2 °F 21.9 °F 78% 30.01 in 10.0 mi NNE 3.5 mph - N/A   Clear
3:53 AM 27.0 °F 23.0 °F 21.0 °F 78% 30.01 in 10.0 mi NE 3.5 mph - N/A   Clear
4:53 AM 27.0 °F 23.0 °F 21.9 °F 81% 29.99 in 10.0 mi NE 3.5 mph - N/A   Clear
5:53 AM 28.0 °F 22.8 °F 23.0 °F 81% 29.98 in 9.0 mi NNE 4.6 mph - N/A   Clear
6:53 AM 28.9 °F 21.9 °F 24.1 °F 82% 29.95 in 8.0 mi ENE 6.9 mph - N/A   Clear
7:53 AM 28.9 °F 21.1 °F 24.1 °F 82% 29.94 in 9.0 mi NE 8.1 mph - N/A   Clear
8:53 AM 30.0 °F 21.7 °F 25.0 °F 82% 29.93 in 8.0 mi ENE 9.2 mph - N/A   Partly Cloudy
9:14 AM 30.2 °F 21.9 °F 24.8 °F 80% 29.89 in 10.0 mi NE 9.2 mph - N/A   Mostly Cloudy
9:53 AM 30.9 °F 22.2 °F 26.1 °F 82% 29.90 in 10.0 mi ENE 10.4 mph - N/A   Overcast
10:53 AM 32.0 °F 22.1 °F 26.1 °F 79% 29.87 in 10.0 mi ENE 13.8 mph 18.4 mph N/A   Mostly Cloudy
11:18 AM 33.8 °F 24.3 °F 24.8 °F 70% 29.81 in 10.0 mi ENE 13.8 mph 25.3 mph N/A   Mostly Cloudy
11:53 AM 33.1 °F 24.4 °F 25.0 °F 72% 29.85 in 10.0 mi ENE 11.5 mph 23.0 mph N/A   Overcast
12:53 PM 36.0 °F 28.0 °F 23.0 °F 59% 29.81 in 10.0 mi ENE 11.5 mph 25.3 mph N/A   Overcast
1:53 PM 35.1 °F 25.2 °F 21.9 °F 59% 29.78 in 10.0 mi ENE 16.1 mph - N/A   Overcast
2:53 PM 34.0 °F 26.0 °F 21.9 °F 61% 29.76 in 10.0 mi ENE 10.4 mph 24.2 mph N/A   Overcast
3:53 PM 35.1 °F 24.8 °F 21.0 °F 57% 29.72 in 10.0 mi ENE 17.3 mph 25.3 mph N/A   Overcast
4:53 PM 36.0 °F 25.0 °F 19.9 °F 52% 29.65 in 10.0 mi ENE 20.7 mph 31.1 mph N/A   Overcast
5:53 PM 34.0 °F 23.0 °F 19.9 °F 56% 29.64 in 10.0 mi ENE 18.4 mph 24.2 mph N/A   Overcast
6:53 PM 34.0 °F 24.6 °F 21.0 °F 59% 29.63 in 10.0 mi ENE 13.8 mph 26.5 mph N/A   Overcast
8:17 PM 33.8 °F 24.3 °F 23.0 °F 65% 29.59 in 10.0 mi ENE 13.8 mph 21.9 mph N/A   Overcast
8:53 PM 33.1 °F 22.6 °F 23.0 °F 66% 29.60 in 10.0 mi NE 16.1 mph 21.9 mph N/A   Overcast
9:20 PM 33.8 °F 23.5 °F 23.0 °F 65% 29.58 in 10.0 mi NE 16.1 mph 29.9 mph N/A   Overcast
9:53 PM 33.1 °F 23.0 °F 23.0 °F 66% 29.60 in 10.0 mi NE 15.0 mph 24.2 mph N/A   Overcast
10:53 PM 33.1 °F 23.0 °F 23.0 °F 66% 29.60 in 8.0 mi NE 15.0 mph 24.2 mph 0.00 in Snow Light Snow
11:53 PM 32.0 °F 21.6 °F 23.0 °F 69% 29.59 in 8.0 mi NE 15.0 mph 25.3 mph 0.00 in   Overcast